Decatur, IL

12:49 PM CST on December 08, 2016 (GMT -0600)
Decatur

Weather History for KDEC - March, 2014

Change the Weather History Date:

Wednesday, March 26, 2014

  Actual Average Record
Temperature  
Mean Temperature 30 °F 45 °F  
Max Temperature 45 °F 56 °F 80 °F (2007)
Min Temperature 15 °F 35 °F 15 °F (2014)
Degree Days  
Heating Degree Days 35 20  
Month to date heating degree days 791 633  
Since 1 July heating degree days 5603 4890  
Cooling Degree Days 0 0  
Month to date cooling degree days 0 0  
Year to date cooling degree days 0 0  
Moisture  
Dew Point 14 °F    
Average Humidity 54    
Maximum Humidity 80    
Minimum Humidity 27    
Precipitation  
Precipitation 0.00 in 0.09 in 1.06 in (2004)
Month to date precipitation 1.02 2.16  
Year to date precipitation 2.14 5.88  
Sea Level Pressure  
Sea Level Pressure 30.25 in    
Wind  
Wind Speed 10 mph (South)    
Max Wind Speed 21 mph    
Max Gust Speed 27 mph    
Visibility 10 miles    
Events      
T = Trace of Precipitation, MM = Missing Value Source: NWS Daily Summary

Daily Weather History Graph

Daily Weather History Graph

Search for Another Location

Airport or City:

Trip Planner

Search our weather history database for the weather conditions in past years. The results will help you decide how hot, cold, wet, or windy it might be!

Date:

Astronomy

Mar. 26, 2014 Rise Set
Actual Time 6:49 AM CDT 7:13 PM CDT
Civil Twilight 6:22 AM CDT 7:40 PM CDT
Nautical Twilight 5:50 AM CDT 8:12 PM CDT
Astronomical Twilight 5:17 AM CDT 8:45 PM CDT
Moon 3:57 AM CDT (3/26) 2:52 PM CDT (3/26)
Length of Visible Light 13h 18m
Length of Day
12h 24m
Waning Crescent, 21% of the Moon is Illuminated
Mar 26
Waning Crescent
Mar 30
New
Apr 7
First Quarter
Apr 15
Full
Apr 22
Last Quarter

Hourly Weather History & Observations

Time (CDT) Temp. Windchill Dew Point Humidity Pressure Visibility Wind Dir Wind Speed Gust Speed Precip Events Conditions
12:54 AM 23.0 °F 12.4 °F 10.9 °F 60% 30.31 in 10.0 mi NNW 10.4 mph - N/A   Clear
1:54 AM 19.9 °F 13.4 °F 10.9 °F 68% 30.31 in 10.0 mi North 4.6 mph - N/A   Clear
2:54 AM 21.0 °F 14.6 °F 10.9 °F 65% 30.31 in 10.0 mi NNW 4.6 mph - N/A   Clear
3:54 AM 19.0 °F - 12.0 °F 74% 30.32 in 10.0 mi Calm Calm - N/A   Clear
4:54 AM 18.0 °F - 12.0 °F 78% 30.32 in 10.0 mi Calm Calm - N/A   Clear
5:54 AM 17.1 °F - 12.0 °F 81% 30.35 in 10.0 mi Calm Calm - N/A   Clear
6:54 AM 15.1 °F - 10.9 °F 84% 30.36 in 10.0 mi Calm Calm - N/A   Clear
7:54 AM 21.0 °F 16.2 °F 15.1 °F 78% 30.38 in 10.0 mi South 3.5 mph - N/A   Clear
8:54 AM 26.1 °F 17.6 °F 14.0 °F 60% 30.37 in 10.0 mi SE 8.1 mph - N/A   Clear
9:54 AM 28.9 °F 20.4 °F 12.9 °F 51% 30.38 in 10.0 mi South 9.2 mph 18.4 mph N/A   Clear
10:54 AM 32.0 °F 24.2 °F 12.9 °F 45% 30.36 in 10.0 mi SSW 9.2 mph - N/A   Clear
11:54 AM 36.0 °F 27.5 °F 12.9 °F 39% 30.33 in 10.0 mi South 12.7 mph 21.9 mph N/A   Clear
12:54 PM 39.0 °F 32.3 °F 10.9 °F 32% 30.30 in 10.0 mi South 10.4 mph 20.7 mph N/A   Clear
1:54 PM 41.0 °F 33.5 °F 12.9 °F 32% 30.25 in 10.0 mi South 13.8 mph 21.9 mph N/A   Clear
2:54 PM 42.1 °F 35.2 °F 12.9 °F 31% 30.23 in 10.0 mi South 12.7 mph - N/A   Clear
3:54 PM 44.1 °F 37.1 °F 12.9 °F 28% 30.19 in 10.0 mi South 15.0 mph - N/A   Clear
4:54 PM 45.0 °F 37.6 °F 14.0 °F 29% 30.16 in 10.0 mi South 17.3 mph - N/A   Clear
5:54 PM 44.1 °F 37.7 °F 15.1 °F 31% 30.15 in 10.0 mi South 12.7 mph 24.2 mph N/A   Clear
6:54 PM 42.1 °F 34.9 °F 16.0 °F 35% 30.14 in 10.0 mi SSE 13.8 mph - N/A   Partly Cloudy
7:54 PM 39.9 °F 32.9 °F 17.1 °F 40% 30.12 in 10.0 mi SSE 11.5 mph - N/A   Scattered Clouds
8:54 PM 39.9 °F 32.5 °F 19.0 °F 43% 30.11 in 10.0 mi SSE 12.7 mph - N/A   Overcast
9:54 PM 39.9 °F 31.1 °F 18.0 °F 41% 30.11 in 10.0 mi South 17.3 mph - N/A   Overcast
10:54 PM 39.0 °F 29.9 °F 19.0 °F 45% 30.08 in 10.0 mi SSE 17.3 mph - N/A   Partly Cloudy
11:54 PM 39.9 °F 30.8 °F 18.0 °F 41% 30.05 in 10.0 mi SSE 18.4 mph - N/A   Mostly Cloudy